Disclaimer

Please do not use the information listed here in-flight or in-navigation, as they are not provided to us by the airports but are provided by volunteers, so they might be outdated.

Search


Regions


Airport information page

Radio informations:
WINNIPEG CNTR - 134.325 MHz
Approach/Departure (APP/DEP) - 119.9 MHz

Airport informations:
Latitude: 52° 10' 15.00" N
Longitude: 106° 41' 59.00" W
Elevation: 1653 feet - 504 meters
Operating hours: N/A
Operating agency: Municipal
Timezone: N/A
Fuel: Jet B, Wide cut turbine fuel, Without icing inhibitor.

JP-4, Wide cut turbine fuel MIL Spec T-5624

Jet A1, without icing nhibitor.

100/130 MIL Spec, low lead, aviation gasoline (BLUE)

Runway information:
09/27 - 8300 x 200 feet< - >2530 x 61 meters
15/33 - 6200 x 150 feet< - >1890 x 46 meters

Recent METARs:
CYXE 200443Z 09016G21KT 3SM -SN DRSN VV014 M19/M22 A3009 RMK SN8 SLP247
CYXE 200500Z 10018KT 4SM -SN DRSN OVC030 M19/M22 A3008 RMK SN5SC3 SLP245
CYXE 200500Z 10018KT 4SM -SN DRSN OVC030 M19/M22 A3008 RMK SN5SC3 SLP245

Airport on the map: